Flag for France

Past Weather in Versailles, Île-de-France, France — Yesterday and Last 2 Weeks

Now
52 °F

Passing clouds.


Feels Like: 49 °F
Forecast: 54 / 47 °F
Wind: 8 mph from Southwest

Location: Villacoublay
Current Time: Sep 24, 2020 at 4:56:15 am
Latest Report: Sep 24, 2020 at 4:00 am
Visibility: N/A
Pressure29.74 "Hg
Humidity: 94%
Dew Point: 50 °F
Location of VersaillesLocation

Past Weather in Versailles — Graph

°F

Versailles Temperature Yesterday

Maximum temperature yesterday: 70 °F (at 2:30 pm)
Minimum temperature yesterday: 57 °F (at 11:30 pm)
Average temperature yesterday: 63 °F

High & Low Weather Summary for the Past Weeks

 TemperatureHumidityPressure
High90 °F (Sep 14, 4:00 pm)94% (Sep 10, 4:30 am)30.30 "Hg (Sep 10, 4:30 am)
Low50 °F (Sep 22, 7:30 am)26% (Sep 14, 5:30 pm)29.62 "Hg (Sep 23, 6:30 pm)
Average69 °F62%30.05 "Hg
* Reported Sep 9 3:00 am — Sep 24 3:30 am, Versailles. Weather by CustomWeather, © 2020

Note: Actual official high and low records may vary slightly from our data, if they occured in-between our weather recording intervals... More about our weather records

Versailles Weather History for the Previous 24 Hours

Scroll right to see more
 ConditionsComfort  
Time TempWeatherWind HumidityBarometerVisibility
3:30 am
Thu, Sep 24
52 °FPassing clouds.7 mph94%29.71 "HgN/A
3:00 am52 °FClear.8 mph94%29.71 "Hg10 mi
2:30 am52 °FPassing clouds.8 mph94%29.71 "HgN/A
2:00 am54 °FPassing clouds.8 mph88%29.71 "HgN/A
1:30 am54 °FClear.8 mph88%29.71 "Hg10 mi
1:00 am54 °FClear.12 mph88%29.68 "Hg10 mi
12:30 am55 °FPassing clouds.12 mph82%29.68 "HgN/A
12:00 am55 °FOvercast.13 mph88%29.65 "HgN/A
11:30 pm
Wed, Sep 23
57 °FPartly cloudy.20 mph88%29.65 "HgN/A
11:00 pm61 °FLight rain. Mostly cloudy.10 mph94%29.62 "HgN/A
10:30 pm61 °FMostly cloudy.10 mph94%29.62 "HgN/A
10:00 pm61 °FRain. Fog.8 mph94%29.62 "Hg3 mi
9:30 pm61 °FPartly cloudy.7 mph94%29.62 "HgN/A
9:00 pm61 °FPassing clouds.8 mph94%29.62 "HgN/A
8:30 pm61 °FMostly cloudy.9 mph94%29.62 "HgN/A
8:00 pm61 °FLight rain. Overcast.8 mph94%29.62 "HgN/A
7:30 pm63 °FRain. Fog.15 mph88%29.62 "Hg2 mi
7:00 pm66 °FOvercast.5 mph78%29.62 "HgN/A
6:30 pm66 °FMild.7 mph78%29.62 "HgN/A
6:00 pm66 °FPartly sunny.10 mph78%29.65 "HgN/A
5:30 pm70 °FMild.10 mph60%29.65 "HgN/A
5:00 pm70 °FPassing clouds.10 mph60%29.65 "HgN/A
4:30 pm68 °FPassing clouds.6 mph78%29.65 "HgN/A
4:00 pm66 °FPartly sunny.8 mph78%29.68 "HgN/A
3:30 pm68 °FBroken clouds.13 mph69%29.68 "HgN/A
3:00 pm70 °FPartly sunny.14 mph64%29.68 "HgN/A
2:30 pm70 °FMostly cloudy.12 mph60%29.71 "HgN/A
2:00 pm68 °FMostly cloudy.12 mph69%29.71 "HgN/A
1:30 pm68 °FMostly cloudy.12 mph69%29.74 "HgN/A
1:00 pm68 °FMostly cloudy.13 mph69%29.74 "HgN/A
12:30 pm66 °FMostly cloudy.10 mph73%29.74 "HgN/A
12:00 pm66 °FMostly cloudy.9 mph68%29.74 "HgN/A
11:30 am64 °FMostly cloudy.12 mph78%29.74 "HgN/A
11:00 am64 °FMostly cloudy.12 mph78%29.74 "HgN/A
10:30 am63 °FMostly cloudy.8 mph83%29.74 "HgN/A
10:00 am61 °FMostly cloudy.9 mph88%29.77 "HgN/A
9:30 am61 °FLow clouds.9 mph94%29.74 "HgN/A
9:00 am59 °FLow clouds.9 mph94%29.74 "HgN/A
8:30 am59 °FLow clouds.8 mph94%29.77 "HgN/A
8:00 am59 °FLow clouds.7 mph94%29.77 "HgN/A
7:30 am59 °FLow clouds.7 mph94%29.74 "Hg6 mi
7:00 am59 °FLow clouds.8 mph94%29.74 "Hg6 mi
6:30 am59 °FPassing clouds.6 mph94%29.77 "HgN/A
6:00 am59 °FPassing clouds.6 mph94%29.77 "HgN/A
5:30 am59 °FClear.5 mph94%29.77 "Hg10 mi
5:00 am59 °FClear.6 mph94%29.77 "Hg10 mi
4:30 am59 °FPassing clouds.6 mph94%29.77 "HgN/A
4:00 am61 °FPartly cloudy.5 mph88%29.77 "HgN/A
Weather by CustomWeather, © 2020

See weather overview